Flag Weather past 2 weeks in Augsburg, Bavaria, Germany

Now
52 °F

Partly sunny.


Feels Like: 52 °F
Forecast: 41 / 56 °F
Wind: 2 mph from North

Location: Augsburg Airport

Current Time: Oct 30, 2014 at 5:21:05 PM

Latest Report: Oct 30, 2014 at 4:50 PM


Visibility: 4 mi

Pressure: 30.30 "Hg

Humidity: 100%

Dew point: 52 °F

Location of AugsburgLocation

Historic Weather in Augsburg — Graph

°F

Augsburg temperature yesterday

Maximum temperature yesterday: 55 °F (at 1:50 PM)
Minimum temperature yesterday: 39 °F (at 8:20 PM)
Average temperature yesterday: 47 °F

Past Weeks' High & Low Weather Summary

 TemperatureHumidityPressure
High73 °F (Oct 19, 2:50 PM)100% (Oct 15, 6:50 PM)30.36 "Hg (Oct 15, 6:50 PM)
Low36 °F (Oct 25, 7:20 AM)44% (Oct 19, 3:50 PM)29.65 "Hg (Oct 21, 7:50 PM)
Average51 °F90%30.12 "Hg
* Reported Oct 15 5:20 PM — Oct 30 4:20 PM, Augsburg, Weather by CustomWeather, © 2014

Note: Actual official high and low records may vary slightly from our data, if they occured in-between our weather recording intervals... More about our weather records

Advertising

Augsburg weather history for previous 24 hours

 ConditionsComfort  
Time TempWeatherWind HumidityBarometerVisibility
4:20 PM
Oct 30
52 °FBroken clouds.2 mph100%30.30 "Hg4 mi
3:50 PM52 °FMore clouds than sun.2 mph100%30.30 "Hg4 mi
3:20 PM52 °FMore clouds than sun.2 mph100%30.30 "Hg4 mi
2:50 PM52 °FOvercast.3 mph100%30.30 "Hg4 mi
2:20 PM52 °FMostly cloudy.5 mph100%30.30 "Hg4 mi
1:50 PM52 °FOvercast.2 mph100%30.30 "Hg4 mi
1:20 PM52 °FMore clouds than sun.3 mph100%30.30 "Hg4 mi
12:50 PM52 °FOvercast.3 mph100%30.30 "Hg4 mi
12:20 PM50 °FFog.3 mph100%30.27 "Hg1 mi
11:50 AM50 °FDrizzle. Fog.2 mph100%30.27 "Hg1 mi
11:20 AM48 °FFog.2 mph100%30.27 "Hg1 mi
10:50 AM48 °FFog.1 mph100%30.27 "Hg2 mi
10:20 AM46 °FFog.2 mph100%30.27 "Hg2 mi
9:50 AM46 °FFog.2 mph100%30.27 "Hg1 mi
9:20 AM45 °FDrizzle. Fog.3 mph100%30.27 "Hg1 mi
8:50 AM45 °FFog.3 mph100%30.27 "Hg1 mi
8:20 AM45 °FDrizzle. Fog.3 mph100%30.24 "Hg1 mi
7:50 AM45 °FDrizzle. Fog.5 mph100%30.24 "Hg1 mi
7:20 AM45 °FDrizzle. Fog.2 mph100%30.24 "Hg1 mi
6:50 AM45 °FDrizzle. Fog.3 mph100%30.21 "Hg1 mi
6:20 AM45 °FRain. Low clouds.5 mph100%30.21 "Hg4 mi
8:50 PM
Oct 29
41 °FPassing clouds.5 mph100%30.12 "Hg6 mi
8:20 PM39 °FPassing clouds.2 mph100%30.12 "Hg6 mi
7:50 PM41 °FPassing clouds.3 mph100%30.12 "HgN/A
7:20 PM43 °FClear.3 mph100%30.12 "Hg10 mi
6:50 PM41 °FClear.3 mph100%30.09 "Hg10 mi
6:20 PM43 °FClear.5 mph100%30.09 "Hg10 mi
5:50 PM45 °FPassing clouds.3 mph100%30.09 "HgN/A
5:20 PM46 °FPassing clouds.2 mph100%30.09 "HgN/A
Weather by CustomWeather, © 2014

See weather overviewHow to use our weather pages